Location: Innsbruck
(47.2657°N, 11.3914°E)
Time: 02:15:38
(UTC+02:00)

Envisat - Pass Details

Date: 06 February 2023
Orbit: 763 x 765 km, 98.2° (Epoch: 28 March)

Event Time Altitude Azimuth Distance (km) Brightness Sun altitude
Rises 06:29:35 0° 356° (N) 3,245 6.1 -11.3°
Reaches altitude 10° 06:34:15 10° 317° (NW) 2,311 5.0 -10.5°
Enters shadow 06:34:59 10° 308° (NW) 2,287 4.9 -10.4°
